Hooper Bay, AK

3:37 PM AKDT on July 27, 2017 (GMT -0800)
Hooper Bay

Weather History for PAHP - April, 2014

Change the Weather History Date:

Wednesday, April 30, 2014

  Actual Average Record
Temperature  
Mean Temperature 58 °F -  
Max Temperature 60 °F 31 °F 60 °F (2014)
Min Temperature 55 °F 25 °F -18 °F (2008)
Degree Days  
Heating Degree Days 8    
Growing Degree Days 8 (Base 50)    
Moisture  
Dew Point 34 °F    
Average Humidity 42    
Maximum Humidity 47    
Minimum Humidity 36    
Precipitation  
Precipitation 0.00 in - - ()
Sea Level Pressure  
Sea Level Pressure 30.10 in    
Wind  
Wind Speed 27 mph (South)    
Max Wind Speed 37 mph    
Max Gust Speed 48 mph    
Visibility 5 miles    
Events      
Averages and records for this station are not official NWS values.
T = Trace of Precipitation, MM = Missing Value Source: NWS Daily Summary

Daily Weather History Graph

Daily Weather History Graph

Search for Another Location

Airport or City:

Trip Planner

Search our weather history database for the weather conditions in past years. The results will help you decide how hot, cold, wet, or windy it might be!

Date:

Astronomy

Apr. 30, 2014 Rise Set
Actual Time 6:56 AM AKDT 11:09 PM AKDT
Civil Twilight 5:58 AM AKDT 12:07 AM AKDT
Nautical Twilight 4:22 AM AKDT 1:48 AM AKDT
Astronomical Twilight Sun does not set Sun does not set
Moon 7:56 AM AKDT (4/30) 12:07 AM AKDT (4/30)
Length of Visible Light 18h 08m
Length of Day
16h 13m
Waxing Crescent, 3% of the Moon is Illuminated
Apr 30
Waxing Crescent
May 6
First Quarter
May 14
Full
May 21
Last Quarter
May 28
New

Hourly Weather History & Observations

Time (AKDT) Temp. Dew Point Humidity Pressure Visibility Wind Dir Wind Speed Gust Speed Precip Events Conditions
12:16 AM 55.4 °F 33.8 °F 44% 30.01 in 10.0 mi South 24.2 mph 34.5 mph N/A   Overcast
12:36 AM 55.4 °F 33.8 °F 44% 30.01 in 10.0 mi South 23.0 mph 36.8 mph N/A   Overcast
12:56 AM 55.4 °F 33.8 °F 44% 30.01 in 8.0 mi South 23.0 mph 34.5 mph N/A   Overcast
1:16 AM 55.4 °F 33.8 °F 44% 30.01 in 7.0 mi South 26.5 mph 35.7 mph N/A   Overcast
1:36 AM 55.4 °F 33.8 °F 44% 30.01 in 7.0 mi South 27.6 mph 35.7 mph N/A   Overcast
1:56 AM 57.2 °F 33.8 °F 41% 30.01 in 8.0 mi South 28.8 mph 35.7 mph N/A   Overcast
2:16 AM 57.2 °F 33.8 °F 41% 30.01 in 8.0 mi South 26.5 mph 33.4 mph N/A   Overcast
2:36 AM 55.4 °F 35.6 °F 47% 30.00 in 7.0 mi South 32.2 mph 43.7 mph N/A   Overcast
2:56 AM 57.2 °F 33.8 °F 41% 30.00 in 7.0 mi South 28.8 mph 35.7 mph N/A   Overcast
3:16 AM 57.2 °F 33.8 °F 41% 30.01 in 7.0 mi South 25.3 mph 36.8 mph N/A   Overcast
3:36 AM - - N/A% 30.00 in 7.0 mi South 25.3 mph 34.5 mph N/A   Overcast
3:56 AM 55.4 °F 33.8 °F 44% 30.01 in 7.0 mi South 24.2 mph 33.4 mph N/A   Overcast
4:16 AM - - N/A% 30.01 in 7.0 mi South 19.6 mph 35.7 mph N/A   Overcast
4:36 AM 57.2 °F 33.8 °F 41% 30.01 in 7.0 mi South 24.2 mph 33.4 mph N/A   Overcast
4:56 AM - - N/A% 30.00 in 7.0 mi South 26.5 mph 35.7 mph N/A   Overcast
5:16 AM 57.2 °F 33.8 °F 41% 30.02 in 7.0 mi South 21.9 mph 33.4 mph N/A   Overcast
5:36 AM 57.2 °F 33.8 °F 41% 30.02 in 6.0 mi South 25.3 mph 34.5 mph N/A   Overcast
5:56 AM - - N/A% 30.01 in 7.0 mi South 20.7 mph 35.7 mph N/A   Overcast
6:16 AM 57.2 °F 33.8 °F 41% 30.02 in 7.0 mi South 20.7 mph 34.5 mph N/A   Overcast
6:36 AM 57.2 °F 33.8 °F 41% 30.02 in 6.0 mi South 25.3 mph 48.3 mph N/A   Overcast
6:56 AM 57.2 °F 33.8 °F 41% 30.03 in 6.0 mi South 27.6 mph 35.7 mph N/A   Overcast
7:16 AM - - N/A% 30.03 in 5.0 mi South 25.3 mph 34.5 mph N/A   Overcast
7:36 AM 57.2 °F 33.8 °F 41% 30.04 in 5.0 mi South 24.2 mph 31.1 mph N/A   Overcast
7:56 AM 55.4 °F 33.8 °F 44% 30.04 in 4.0 mi South 25.3 mph 32.2 mph N/A   Overcast
8:16 AM - - N/A% 30.04 in 4.0 mi South 25.3 mph 35.7 mph N/A   Overcast
8:36 AM 55.4 °F 33.8 °F 44% 30.04 in 5.0 mi South 21.9 mph 32.2 mph N/A   Overcast
8:56 AM - - N/A% 30.04 in 5.0 mi South 19.6 mph 31.1 mph N/A   Overcast
9:16 AM 55.4 °F 33.8 °F 44% 30.04 in 5.0 mi South 27.6 mph 35.7 mph N/A   Overcast
9:36 AM 57.2 °F 33.8 °F 41% 30.05 in 5.0 mi South 23.0 mph 35.7 mph N/A   Overcast
9:56 AM 59.0 °F 35.6 °F 42% 30.06 in 5.0 mi South 23.0 mph 33.4 mph N/A   Overcast
10:16 AM - - N/A% 30.05 in 5.0 mi South 23.0 mph 32.2 mph N/A   Overcast
10:36 AM - - N/A% 30.07 in 5.0 mi South 21.9 mph 33.4 mph N/A   Overcast
10:56 AM 59.0 °F 32.0 °F 36% 30.08 in 5.0 mi South 24.2 mph 32.2 mph N/A   Overcast
11:16 AM - - N/A% 30.08 in 5.0 mi South 31.1 mph 38.0 mph N/A   Overcast
11:36 AM - - N/A% 30.08 in 4.0 mi South 33.4 mph 36.8 mph N/A   Overcast
11:56 AM - - N/A% 30.09 in 4.0 mi South 28.8 mph 40.3 mph N/A   Overcast
12:16 PM - - N/A% 30.10 in 5.0 mi South 33.4 mph 39.1 mph N/A   Overcast
12:36 PM - - N/A% 30.11 in 5.0 mi South 32.2 mph 41.4 mph N/A   Overcast
12:56 PM - - N/A% 30.11 in 4.0 mi South 35.7 mph 41.4 mph N/A   Overcast
1:16 PM - - N/A% 30.12 in 5.0 mi South 32.2 mph 43.7 mph N/A   Overcast
1:36 PM 60.8 °F 33.8 °F 36% 30.13 in 4.0 mi South 32.2 mph 40.3 mph N/A   Overcast
1:56 PM - - N/A% 30.13 in 4.0 mi South 32.2 mph 39.1 mph N/A   Overcast
2:16 PM - - N/A% 30.13 in 3.0 mi South 28.8 mph 40.3 mph N/A   Overcast
2:36 PM - - N/A% 30.14 in 3.0 mi South 32.2 mph 38.0 mph N/A   Overcast
2:56 PM - - N/A% 30.14 in 4.0 mi South 35.7 mph 41.4 mph N/A   Overcast
3:16 PM - - N/A% 30.15 in 5.0 mi South 33.4 mph 40.3 mph N/A   Overcast
3:36 PM - - N/A% 30.15 in 5.0 mi South 28.8 mph 41.4 mph N/A   Overcast
3:56 PM - - N/A% 30.16 in 3.0 mi South 34.5 mph 44.9 mph N/A   Overcast
4:16 PM - - N/A% 30.16 in 3.0 mi South 36.8 mph 41.4 mph N/A   Overcast
4:36 PM - - N/A% 30.16 in 3.0 mi South 33.4 mph 40.3 mph N/A   Overcast
4:56 PM 59.0 °F 33.8 °F 39% 30.17 in 4.0 mi South 29.9 mph 39.1 mph N/A   Overcast
5:16 PM 57.2 °F 33.8 °F 41% 30.17 in 4.0 mi South 32.2 mph 40.3 mph N/A   Overcast
5:36 PM - - N/A% 30.16 in 5.0 mi South 34.5 mph 39.1 mph N/A   Overcast
5:56 PM 59.0 °F 33.8 °F 39% 30.17 in 5.0 mi South 31.1 mph 40.3 mph N/A   Overcast
6:16 PM - - N/A% 30.17 in 4.0 mi South 29.9 mph 40.3 mph N/A   Overcast
6:36 PM - - N/A% 30.17 in 4.0 mi South 33.4 mph 41.4 mph N/A   Overcast
6:56 PM - - N/A% 30.17 in 3.0 mi South 31.1 mph 39.1 mph N/A   Overcast
7:16 PM - - N/A% 30.18 in 3.0 mi South 33.4 mph 41.4 mph N/A   Overcast
7:36 PM - - N/A% 30.18 in 4.0 mi South 32.2 mph 40.3 mph N/A   Overcast
7:56 PM - - N/A% 30.18 in 4.0 mi South 32.2 mph 39.1 mph N/A   Overcast
8:16 PM - - N/A% 30.18 in 4.0 mi South 33.4 mph 41.4 mph N/A   Overcast
8:36 PM 57.2 °F 35.6 °F 44% 30.20 in 3.0 mi South 31.1 mph 38.0 mph N/A   Overcast
8:56 PM - - N/A% 30.19 in 3.0 mi South 32.2 mph 41.4 mph N/A   Overcast
9:16 PM - - N/A% 30.20 in 4.0 mi South 32.2 mph 38.0 mph N/A   Overcast
9:36 PM - - N/A% 30.20 in 4.0 mi South 33.4 mph 40.3 mph N/A   Overcast
9:56 PM 57.2 °F 33.8 °F 41% 30.21 in 5.0 mi South 32.2 mph 38.0 mph N/A   Overcast
10:16 PM 57.2 °F 33.8 °F 41% 30.22 in 5.0 mi South 29.9 mph 39.1 mph N/A   Overcast
10:36 PM - - N/A% 30.22 in 5.0 mi South 32.2 mph 39.1 mph N/A   Overcast
10:56 PM 57.2 °F 33.8 °F 41% 30.23 in 5.0 mi South 31.1 mph 36.8 mph N/A   Overcast
11:16 PM - - N/A% 30.23 in 5.0 mi South 32.2 mph 39.1 mph N/A   Overcast
11:36 PM 57.2 °F 33.8 °F 41% 30.25 in 6.0 mi South 29.9 mph 38.0 mph N/A   Overcast
11:56 PM 57.2 °F 33.8 °F 41% 30.25 in 6.0 mi South 29.9 mph 36.8 mph N/A   Overcast